Dirección General De Aeronáutica Civil

Dirección Meteorológica de Chile - Servicios Climáticos

Informe General de Control de Calidad de la Estación

Listado de niveles de control de calidad para algunos parámetros
Estación Valdivia, Radio Est. FACH. (390008)
Fecha de Revisión de los datos :

Elementos

Registros Niveles de Control Total
Nivel 0 Nivel 1 Nivel 2 Nivel 3 Errores Porcentaje
01 Temperatura del Aire Seco 38.853 0 . 22 0.06 % 0 . 0 . 22 0.06 %
02 Temperatura de Rocío 14.957 0 . 0 . 0 . 0 . 0 0.00 %
03 Humedad Relativa del Aire 33.659 0 . 0 . 0 . 0 . 0 0.00 %
04 Temperatura Máxima PM 2.130 0 . 0 . 88 4.13 % 0 . 88 4.13 %
05 Temperatura Mínima AM 2.130 0 . 0 . 31 1.46 % 0 . 31 1.46 %
06 Viento a 10 m. de Altura 39.596 6 0.02 % 39 0.10 % 0 . 0 . 45 0.11 %
07 Agua Caida, Acumulada 6 Horas 2.190 0 . 0 . 0 . 0 . 0 0.00 %
08 Presión Atm. a Nivel de Estación (QFE) 4.122 0 . 0 . 0 . 0 . 0 0.00 %
09 Presión Atm. a Nivel Medio del Mar (QFF) 18.885 3 0.02 % 0 . 0 . 0 . 3 0.02 %
10 Tiempo Pasado Sinóptico 4.409 0 . 0 . 0 . 0 . 0 0.00 %
11 Tiempo Presente Sinóptico 15.339 0 . 10 0.07 % 0 . 0 . 10 0.07 %

Totales

176.270 . 0.0051 % . 0.0403 % . 0.0675 % . 0.0000 % 199 0.1129 %

Detalle de Errores Encontrados

Nivel Fecha del Dato Descripción Información Error Fecha Ingreso
0 1951-11-10 23:00:00 ff (Intensidad del Viento) debe ser numerico, entre 0 y 70 kt. 130 2020-05-29 16:59:00
0 1955-03-08 23:00:00 ff (Intensidad del Viento) debe ser numerico, entre 0 y 70 kt. 85 2020-04-27 16:56:00
0 1966-02-12 23:00:00 ff (Intensidad del Viento) debe ser numerico, entre 0 y 70 kt. 85 2020-04-07 15:21:00
0 1966-02-13 23:00:00 ff (Intensidad del Viento) debe ser numerico, entre 0 y 70 kt. 85 2020-04-07 15:21:00
0 1969-02-01 12:00:00 ff (Intensidad del Viento) debe ser numerico, entre 0 y 70 kt. 85 2020-04-17 14:05:00
0 1969-12-29 18:00:00 ff (Intensidad del Viento) debe ser numerico, entre 0 y 70 kt. 78 2020-04-22 20:43:00
0 1952-03-21 10:00:00 qff (Presión a nivel del Mar) debe ser numérico, entre 300 y 1100 76.8 2014-10-15 13:11:00
0 1952-08-02 12:00:00 qff (Presión a nivel del Mar) debe ser numérico, entre 300 y 1100 77.8 2014-10-21 13:27:00
0 1952-08-31 18:00:00 qff (Presión a nivel del Mar) debe ser numérico, entre 300 y 1100 77.8 2014-10-22 12:39:00
Errores del Nivel 9
Nivel Fecha del Dato Descripción Información Error Fecha Ingreso
1 1952-01-03 07:00:00 Viento calma fue mal ingresado. dd = 0 - ff = 10 2014-10-10 16:07:00
1 1952-01-03 08:00:00 Viento calma fue mal ingresado. dd = 0 - ff = 10 2014-10-10 16:07:00
1 1952-01-03 09:00:00 Viento calma fue mal ingresado. dd = 0 - ff = 16 2014-10-10 16:07:00
1 1952-01-03 10:00:00 Viento calma fue mal ingresado. dd = 0 - ff = 16 2014-10-10 16:07:00
1 1952-01-03 11:00:00 Viento calma fue mal ingresado. dd = 0 - ff = 16 2014-10-10 16:07:00
1 1952-02-13 18:00:00 Viento calma fue mal ingresado. dd = 0 - ff = 5 2014-10-14 12:44:00
1 1952-03-22 12:00:00 Viento calma fue mal ingresado. dd = 140 - ff = 0 2014-10-15 13:19:00
1 1952-04-18 10:00:00 Viento calma fue mal ingresado. dd = 8 - ff = 0 2014-10-15 20:15:00
1 1952-07-07 12:00:00 Viento calma fue mal ingresado. dd = 0 - ff = 2 2014-10-20 17:31:00
1 1952-07-09 17:00:00 Viento calma fue mal ingresado. dd = 320 - ff = 0 2014-10-20 17:48:00
1 1952-07-13 13:00:00 Viento calma fue mal ingresado. dd = 360 - ff = 0 2014-10-20 18:19:00
1 1952-10-18 14:00:00 Viento calma fue mal ingresado. dd = 0 - ff = 5 2014-10-27 14:30:00
1 1952-11-03 18:00:00 ff < 19kt y ((ww >= 31 y ww <= 35) o (ww == 37 o ww == 39 o ww >= 98))) 2014-10-27 19:47:00
1 1953-03-22 18:00:00 Viento calma fue mal ingresado. dd = 140 - ff = 0 2013-09-25 17:49:00
1 1953-04-02 11:00:00 Viento calma fue mal ingresado. dd = 140 - ff = 0 2013-09-26 15:55:00
1 1953-04-13 19:00:00 Viento calma fue mal ingresado. dd = 140 - ff = 0 2013-09-27 15:47:00
1 1953-05-15 23:00:00 Viento calma fue mal ingresado. dd = 360 - ff = 0 2013-10-02 19:40:00
1 1953-06-05 12:00:00 Viento calma fue mal ingresado. dd = 360 - ff = 0 2013-10-07 14:44:00
1 1953-06-11 12:00:00 Viento calma fue mal ingresado. dd = 140 - ff = 0 2013-10-07 18:30:00
1 1953-07-13 21:00:00 Viento calma fue mal ingresado. dd = 360 - ff = 0 2013-10-23 13:22:00
1 1953-07-20 18:00:00 Viento calma fue mal ingresado. dd = 140 - ff = 0 2013-10-23 18:11:00
1 1953-08-31 19:00:00 Viento calma fue mal ingresado. dd = 320 - ff = 0 2013-10-30 13:17:00
1 1953-09-15 18:00:00 Viento calma fue mal ingresado. dd = 40 - ff = 0 2013-11-04 13:23:00
1 1953-10-01 18:00:00 Viento calma fue mal ingresado. dd = 220 - ff = 0 2013-11-05 18:08:00
1 1953-10-05 22:00:00 Viento calma fue mal ingresado. dd = 220 - ff = 0 2013-11-06 12:35:00
1 1953-10-09 20:00:00 Viento calma fue mal ingresado. dd = 140 - ff = 0 2013-11-06 14:44:00
1 1953-11-19 15:00:00 Viento calma fue mal ingresado. dd = 90 - ff = 0 2013-11-11 15:06:00
1 1953-11-19 17:00:00 Viento calma fue mal ingresado. dd = 140 - ff = 0 2013-11-11 15:07:00
1 1953-11-26 23:00:00 Viento calma fue mal ingresado. dd = 140 - ff = 0 2013-11-11 19:32:00
1 1953-11-27 15:00:00 Viento calma fue mal ingresado. dd = 180 - ff = 0 2013-11-11 19:45:00
1 1953-12-08 17:00:00 Viento calma fue mal ingresado. dd = 270 - ff = 0 2013-11-12 18:31:00
1 1953-12-14 13:00:00 Viento calma fue mal ingresado. dd = 140 - ff = 0 2013-11-13 17:21:00
1 1953-12-21 23:00:00 Viento calma fue mal ingresado. dd = 220 - ff = 0 2013-11-14 13:58:00
1 1954-03-19 16:00:00 Viento calma fue mal ingresado. dd = 140 - ff = 0 2012-11-16 13:27:00
1 1954-03-23 10:00:00 Viento calma fue mal ingresado. dd = 360 - ff = 0 2012-11-16 15:06:00
1 1954-04-12 20:00:00 Viento calma fue mal ingresado. dd = 220 - ff = 0 2012-11-21 15:59:00
1 1954-04-12 21:00:00 Viento calma fue mal ingresado. dd = 220 - ff = 0 2012-11-21 16:00:00
1 1954-08-21 14:00:00 Viento calma fue mal ingresado. dd = 360 - ff = 0 2012-12-19 17:57:00
1 1954-08-21 15:00:00 Viento calma fue mal ingresado. dd = 360 - ff = 0 2012-12-19 17:58:00
1 1952-02-15 16:00:00 Ts debe ser mayor o igual a Td Ts=13.0 - Td=17.0 2014-10-14 13:13:00
1 1952-02-26 11:00:00 Ts debe ser mayor o igual a Td Ts=13.0 - Td=20.0 2014-10-14 15:39:00
1 1952-10-31 14:00:00 Ts debe ser mayor o igual a Td Ts=3.4 - Td=9.3 2014-10-27 19:22:00
1 1952-12-30 11:00:00 HR (Humedad Relativa) es igual a 100% y Ts <> Td 9.1 - 7.0 2014-10-29 17:26:00
1 1953-06-07 18:00:00 Ts debe ser mayor o igual a Td Ts=11.7 - Td=11.8 2013-10-07 15:54:00
1 1953-06-28 15:00:00 Ts debe ser mayor o igual a Td Ts=-1.2 - Td=-0.9 2013-10-15 14:10:00
1 1953-07-03 14:00:00 Ts debe ser mayor o igual a Td Ts=-0.7 - Td=0.7 2013-10-21 18:12:00
1 1953-07-03 14:00:00 HR (Humedad Relativa) es igual a 100% y Ts <> Td -0.7 - 0.7 2013-10-21 18:12:00
1 1953-07-12 14:00:00 Ts debe ser mayor o igual a Td Ts=8.7 - Td=9.2 2013-10-23 12:44:00
1 1953-07-19 14:00:00 Ts debe ser mayor o igual a Td Ts=-2.6 - Td=-2.4 2013-10-23 17:57:00
1 1953-07-21 10:00:00 Ts debe ser mayor o igual a Td Ts=-4.2 - Td=-3.8 2013-10-23 18:20:00
1 1953-07-21 12:00:00 Ts debe ser mayor o igual a Td Ts=-3.8 - Td=-3.6 2013-10-23 18:21:00
1 1953-07-21 13:00:00 Ts debe ser mayor o igual a Td Ts=-4.2 - Td=-3.9 2013-10-23 18:21:00
1 1953-07-21 14:00:00 Ts debe ser mayor o igual a Td Ts=-3.8 - Td=-3.6 2013-10-23 18:21:00
1 1953-07-21 15:00:00 Ts debe ser mayor o igual a Td Ts=-1.4 - Td=-1.2 2013-10-23 18:21:00
1 1954-03-20 15:00:00 Ts debe ser mayor o igual a Td Ts=8.9 - Td=13.0 2012-11-16 13:38:00
1 1954-04-07 16:00:00 Ts debe ser mayor o igual a Td Ts=11.1 - Td=13.6 2012-11-21 13:59:00
1 1954-04-19 12:00:00 Ts debe ser mayor o igual a Td Ts=12.6 - Td=12.9 2012-11-22 13:32:00
1 1954-05-10 23:00:00 Ts debe ser mayor o igual a Td Ts=6.1 - Td=6.8 2012-11-23 18:46:00
1 1954-08-19 19:00:00 Ts debe ser mayor o igual a Td Ts=4.0 - Td=5.0 2012-12-19 12:29:00
1 1954-10-07 10:00:00 HR (Humedad Relativa) es igual a 100% y Ts <> Td 4.4 - 4.0 2013-01-02 14:20:00
1 1954-10-07 11:00:00 Ts debe ser mayor o igual a Td Ts=4.4 - Td=5.2 2013-01-02 14:20:00
1 1952-07-21 13:00:00 (ts - td > 5.0) y ((ww >= 40 y ww <= 49)) 45 2014-10-20 19:53:00
1 1952-07-22 18:00:00 ts > 3.0 y ( (ww >= 48 y ww <= 49) o (ww >= 56 y ww <= 57) o (ww >=66 y ww <= 67)) 48 2014-10-20 20:02:00
1 1953-07-04 16:00:00 (ts - td > 5.0) y ((ww >= 40 y ww <= 49)) 45 2013-10-21 20:21:00
1 1953-07-19 16:00:00 (ts - td > 5.0) y ((ww >= 40 y ww <= 49)) 43 2013-10-23 17:57:00
1 1953-08-05 13:00:00 ts > 5.0 y ((ww >= 70 y ww <= 79) || (ww >= 85 y ww <= 88))) 87 2013-10-25 18:11:00
1 1953-08-22 19:00:00 ts > 3.0 y ( (ww >= 48 y ww <= 49) o (ww >= 56 y ww <= 57) o (ww >=66 y ww <= 67)) 67 2013-10-29 14:19:00
1 1953-08-22 20:00:00 ts > 3.0 y ( (ww >= 48 y ww <= 49) o (ww >= 56 y ww <= 57) o (ww >=66 y ww <= 67)) 66 2013-10-29 14:19:00
1 1953-08-22 21:00:00 ts > 3.0 y ( (ww >= 48 y ww <= 49) o (ww >= 56 y ww <= 57) o (ww >=66 y ww <= 67)) 66 2013-10-29 14:19:00
1 1954-07-23 10:00:00 (ts - td > 5.0) y ((ww >= 40 y ww <= 49)) 47 2012-12-03 20:46:00
1 1954-08-08 15:00:00 ts > 5.0 y ((ww >= 70 y ww <= 79) || (ww >= 85 y ww <= 88))) 87 2012-12-12 15:40:00
Errores del Nivel 71
Nivel Fecha del Dato Descripción Información Error Fecha Ingreso
2 1941-05-17 00:00:00 Temperatura 15.0 del 16-05-1941 13:00, Mayor que la Máxima 14.9 17-05-1941 00:00 15.0 -- 14.9 2020-10-27 14:34:00
2 1942-05-23 00:00:00 Temperatura 13.0 del 22-05-1942 13:00, Mayor que la Máxima 12.0 23-05-1942 00:00 13.0 -- 12.0 2020-10-30 19:59:00
2 1942-07-02 00:00:00 Temperatura 4.9 del 01-07-1942 18:00, Mayor que la Máxima 4.7 02-07-1942 00:00 4.9 -- 4.7 2020-10-30 20:14:00
2 1942-09-25 00:00:00 Temperatura 14.0 del 24-09-1942 13:00, Mayor que la Máxima 13.8 25-09-1942 00:00 14.0 -- 13.8 2020-10-30 20:22:00
2 1952-01-10 00:00:00 Temperatura 23.0 del 09-01-1952 14:00, Mayor que la Máxima 22.0 10-01-1952 00:00 23.0 -- 22.0 2014-10-20 14:27:00
2 1952-03-03 00:00:00 Temperatura 20.0 del 02-03-1952 15:00, Mayor que la Máxima 19.0 03-03-1952 00:00 20.0 -- 19.0 2014-10-20 14:44:00
2 1952-03-12 00:00:00 Temperatura 18.0 del 11-03-1952 17:00, Mayor que la Máxima 17.0 12-03-1952 00:00 18.0 -- 17.0 2014-10-20 14:44:00
2 1952-03-17 00:00:00 Temperatura 18.0 del 16-03-1952 17:00, Mayor que la Máxima 14.0 17-03-1952 00:00 18.0 -- 14.0 2014-10-20 14:44:00
2 1952-03-21 00:00:00 Temperatura 18.0 del 20-03-1952 19:00, Mayor que la Máxima 17.0 21-03-1952 00:00 18.0 -- 17.0 2014-10-20 14:45:00
2 1952-03-27 00:00:00 Temperatura 17.0 del 26-03-1952 22:00, Mayor que la Máxima 16.0 27-03-1952 00:00 17.0 -- 16.0 2014-10-20 14:45:00
2 1952-04-10 00:00:00 Temperatura 19.0 del 09-04-1952 21:00, Mayor que la Máxima 18.0 10-04-1952 00:00 19.0 -- 18.0 2014-10-20 14:51:00
2 1952-04-11 00:00:00 Temperatura 17.0 del 10-04-1952 18:00, Mayor que la Máxima 16.0 11-04-1952 00:00 17.0 -- 16.0 2014-10-20 14:51:00
2 1952-04-13 00:00:00 Temperatura 18.0 del 12-04-1952 18:00, Mayor que la Máxima 17.0 13-04-1952 00:00 18.0 -- 17.0 2014-10-20 14:51:00
2 1952-05-13 00:00:00 Temperatura 16.0 del 12-05-1952 17:00, Mayor que la Máxima 15.0 13-05-1952 00:00 16.0 -- 15.0 2014-10-20 14:59:00
2 1952-05-18 00:00:00 Temperatura 17.0 del 17-05-1952 18:00, Mayor que la Máxima 16.0 18-05-1952 00:00 17.0 -- 16.0 2014-10-20 14:59:00
2 1952-05-29 00:00:00 Temperatura 12.0 del 28-05-1952 15:00, Mayor que la Máxima 10.0 29-05-1952 00:00 12.0 -- 10.0 2014-10-20 14:59:00
2 1952-06-05 00:00:00 Temperatura 14.0 del 04-06-1952 18:00, Mayor que la Máxima 13.0 05-06-1952 00:00 14.0 -- 13.0 2014-10-20 15:26:00
2 1952-06-14 00:00:00 Temperatura 7.0 del 13-06-1952 18:00, Mayor que la Máxima 5.0 14-06-1952 00:00 7.0 -- 5.0 2014-10-20 15:26:00
2 1952-06-24 00:00:00 Temperatura 15.0 del 23-06-1952 18:00, Mayor que la Máxima 13.0 24-06-1952 00:00 15.0 -- 13.0 2014-10-20 15:26:00
2 1952-07-22 00:00:00 Temperatura 11.0 del 21-07-1952 13:00, Mayor que la Máxima 8.0 22-07-1952 00:00 11.0 -- 8.0 2014-10-29 17:46:00
2 1952-07-24 00:00:00 Temperatura 12.0 del 23-07-1952 20:00, Mayor que la Máxima 7.0 24-07-1952 00:00 12.0 -- 7.0 2014-10-29 17:46:00
2 1952-07-26 00:00:00 Temperatura 11.0 del 25-07-1952 21:00, Mayor que la Máxima 7.0 26-07-1952 00:00 11.0 -- 7.0 2014-10-29 17:46:00
2 1952-07-29 00:00:00 Temperatura 12.0 del 28-07-1952 15:00, Mayor que la Máxima 10.0 29-07-1952 00:00 12.0 -- 10.0 2014-10-29 17:46:00
2 1952-08-01 00:00:00 Temperatura 11.0 del 31-07-1952 19:00, Mayor que la Máxima 9.0 01-08-1952 00:00 11.0 -- 9.0 2014-10-29 17:46:00
2 1952-08-09 00:00:00 Temperatura 13.0 del 08-08-1952 16:00, Mayor que la Máxima 12.0 09-08-1952 00:00 13.0 -- 12.0 2014-10-29 17:54:00
2 1952-09-17 00:00:00 Temperatura 13.0 del 16-09-1952 15:00, Mayor que la Máxima 11.0 17-09-1952 00:00 13.0 -- 11.0 2014-10-29 18:07:00
2 1952-09-27 00:00:00 Temperatura 14.0 del 26-09-1952 17:00, Mayor que la Máxima 13.0 27-09-1952 00:00 14.0 -- 13.0 2014-10-29 18:07:00
2 1952-09-28 00:00:00 Temperatura 14.0 del 27-09-1952 18:00, Mayor que la Máxima 13.0 28-09-1952 00:00 14.0 -- 13.0 2014-10-29 18:07:00
2 1952-09-29 00:00:00 Temperatura 16.0 del 28-09-1952 16:00, Mayor que la Máxima 13.0 29-09-1952 00:00 16.0 -- 13.0 2014-10-29 18:07:00
2 1952-10-06 00:00:00 Temperatura 13.0 del 05-10-1952 17:00, Mayor que la Máxima 12.0 06-10-1952 00:00 13.0 -- 12.0 2014-10-29 18:16:00
2 1952-10-10 00:00:00 Temperatura 13.4 del 09-10-1952 18:00, Mayor que la Máxima 13.0 10-10-1952 00:00 13.4 -- 13.0 2014-10-29 18:16:00
2 1952-10-14 00:00:00 Temperatura 14.5 del 13-10-1952 18:00, Mayor que la Máxima 14.3 14-10-1952 00:00 14.5 -- 14.3 2014-10-29 18:16:00
2 1952-10-20 00:00:00 Temperatura 17.5 del 19-10-1952 18:00, Mayor que la Máxima 17.4 20-10-1952 00:00 17.5 -- 17.4 2014-10-29 18:16:00
2 1952-10-21 00:00:00 Temperatura 18.8 del 20-10-1952 19:00, Mayor que la Máxima 18.7 21-10-1952 00:00 18.8 -- 18.7 2014-10-29 18:16:00
2 1952-11-03 00:00:00 Temperatura 20.6 del 02-11-1952 17:00, Mayor que la Máxima 19.8 03-11-1952 00:00 20.6 -- 19.8 2014-10-29 18:24:00
2 1952-11-04 00:00:00 Temperatura 19.0 del 03-11-1952 17:00, Mayor que la Máxima 18.7 04-11-1952 00:00 19.0 -- 18.7 2014-10-29 18:24:00
2 1952-11-10 00:00:00 Temperatura 15.8 del 09-11-1952 18:00, Mayor que la Máxima 14.9 10-11-1952 00:00 15.8 -- 14.9 2014-10-29 18:24:00
2 1952-11-12 00:00:00 Temperatura 20.0 del 11-11-1952 16:00, Mayor que la Máxima 19.2 12-11-1952 00:00 20.0 -- 19.2 2014-10-29 18:24:00
2 1952-11-18 00:00:00 Temperatura 14.5 del 17-11-1952 15:00, Mayor que la Máxima 13.8 18-11-1952 00:00 14.5 -- 13.8 2014-10-29 18:24:00
2 1952-12-15 00:00:00 Temperatura 18.7 del 14-12-1952 16:00, Mayor que la Máxima 17.7 15-12-1952 00:00 18.7 -- 17.7 2014-10-29 18:35:00
2 1952-12-21 00:00:00 Temperatura 27.1 del 20-12-1952 21:00, Mayor que la Máxima 25.7 21-12-1952 00:00 27.1 -- 25.7 2014-10-29 18:35:00
2 1952-12-25 00:00:00 Temperatura 20.2 del 24-12-1952 16:00, Mayor que la Máxima 20.0 25-12-1952 00:00 20.2 -- 20.0 2014-10-29 18:35:00
2 1952-12-27 00:00:00 Temperatura 21.5 del 26-12-1952 15:00, Mayor que la Máxima 20.4 27-12-1952 00:00 21.5 -- 20.4 2014-10-29 18:35:00
2 1953-01-02 00:00:00 Temperatura 26.1 del 01-01-1953 17:00, Mayor que la Máxima 25.2 02-01-1953 00:00 26.1 -- 25.2 2013-10-15 14:59:00
2 1953-01-02 00:00:00 Temperatura 26.1 del 01-01-1953 17:00, Mayor que la Máxima 25.2 02-01-1953 00:00 26.1 -- 25.2 2013-10-15 14:59:00
2 1953-01-10 00:00:00 Temperatura 19.1 del 09-01-1953 20:00, Mayor que la Máxima 18.2 10-01-1953 00:00 19.1 -- 18.2 2013-10-15 15:21:00
2 1953-01-15 00:00:00 Temperatura 22.8 del 14-01-1953 15:00, Mayor que la Máxima 21.1 15-01-1953 00:00 22.8 -- 21.1 2013-10-15 15:26:00
2 1953-01-29 00:00:00 Temperatura 22.2 del 28-01-1953 21:00, Mayor que la Máxima 21.8 29-01-1953 00:00 22.2 -- 21.8 2013-10-15 15:42:00
2 1953-02-05 00:00:00 Temperatura 23.6 del 04-02-1953 20:00, Mayor que la Máxima 23.4 05-02-1953 00:00 23.6 -- 23.4 2013-10-15 15:57:00
2 1953-02-28 00:00:00 Temperatura 22.2 del 27-02-1953 18:00, Mayor que la Máxima 22.0 28-02-1953 00:00 22.2 -- 22.0 2013-10-15 17:45:00
2 1953-03-11 00:00:00 Temperatura 16.5 del 10-03-1953 15:00, Mayor que la Máxima 15.8 11-03-1953 00:00 16.5 -- 15.8 2013-10-15 18:23:00
2 1953-03-25 00:00:00 Temperatura 22.8 del 24-03-1953 21:00, Mayor que la Máxima 22.4 25-03-1953 00:00 22.8 -- 22.4 2013-10-15 18:34:00
2 1953-04-27 00:00:00 Temperatura 16.0 del 26-04-1953 18:00, Mayor que la Máxima 15.1 27-04-1953 00:00 16.0 -- 15.1 2013-10-15 19:16:00
2 1953-05-06 00:00:00 Temperatura 17.6 del 05-05-1953 17:00, Mayor que la Máxima 17.4 06-05-1953 00:00 17.6 -- 17.4 2013-10-15 19:32:00
2 1953-05-21 00:00:00 Temperatura 15.7 del 20-05-1953 13:00, Mayor que la Máxima 15.4 21-05-1953 00:00 15.7 -- 15.4 2013-10-15 19:41:00
2 1953-06-01 00:00:00 Temperatura 14.0 del 31-05-1953 16:00, Mayor que la Máxima 13.8 01-06-1953 00:00 14.0 -- 13.8 2013-10-15 19:56:00
2 1953-06-09 00:00:00 Temperatura 12.7 del 08-06-1953 16:00, Mayor que la Máxima 12.6 09-06-1953 00:00 12.7 -- 12.6 2013-10-15 20:19:00
2 1953-06-13 00:00:00 Temperatura 14.6 del 12-06-1953 20:00, Mayor que la Máxima 13.7 13-06-1953 00:00 14.6 -- 13.7 2013-10-21 13:22:00
2 1953-06-24 00:00:00 Temperatura 10.9 del 23-06-1953 13:00, Mayor que la Máxima 9.7 24-06-1953 00:00 10.9 -- 9.7 2013-10-21 15:02:00
2 1953-07-28 00:00:00 Temperatura 11.4 del 27-07-1953 20:00, Mayor que la Máxima 11.2 28-07-1953 00:00 11.4 -- 11.2 2013-11-15 14:59:00
2 1953-08-07 00:00:00 Temperatura 13.0 del 06-08-1953 19:00, Mayor que la Máxima 12.1 07-08-1953 00:00 13.0 -- 12.1 2013-11-18 14:57:00
2 1953-08-22 00:00:00 Temperatura 8.1 del 21-08-1953 15:00, Mayor que la Máxima 7.0 22-08-1953 00:00 8.1 -- 7.0 2013-11-18 15:13:00
2 1953-08-24 00:00:00 Temperatura 11.4 del 23-08-1953 17:00, Mayor que la Máxima 11.3 24-08-1953 00:00 11.4 -- 11.3 2013-11-18 15:15:00
2 1953-09-08 00:00:00 Temperatura 12.8 del 07-09-1953 20:00, Mayor que la Máxima 12.7 08-09-1953 00:00 12.8 -- 12.7 2013-11-15 18:07:00
2 1953-09-30 00:00:00 Temperatura 13.0 del 29-09-1953 17:00, Mayor que la Máxima 12.9 30-09-1953 00:00 13.0 -- 12.9 2013-11-15 18:18:00
2 1953-10-11 00:00:00 Temperatura 16.6 del 10-10-1953 17:00, Mayor que la Máxima 15.6 11-10-1953 00:00 16.6 -- 15.6 2013-11-15 18:56:00
2 1953-10-16 00:00:00 Temperatura 10.8 del 15-10-1953 16:00, Mayor que la Máxima 10.7 16-10-1953 00:00 10.8 -- 10.7 2013-11-15 18:59:00
2 1953-11-10 00:00:00 Temperatura 14.0 del 09-11-1953 15:00, Mayor que la Máxima 13.7 10-11-1953 00:00 14.0 -- 13.7 2013-11-18 13:24:00
2 1953-11-29 00:00:00 Temperatura 17.5 del 28-11-1953 17:00, Mayor que la Máxima 17.2 29-11-1953 00:00 17.5 -- 17.2 2013-11-18 13:33:00
2 1953-12-07 00:00:00 Temperatura 24.7 del 06-12-1953 21:00, Mayor que la Máxima 24.4 07-12-1953 00:00 24.7 -- 24.4 2013-11-18 13:54:00
2 1953-12-13 00:00:00 Temperatura 21.4 del 12-12-1953 20:00, Mayor que la Máxima 21.1 13-12-1953 00:00 21.4 -- 21.1 2013-11-18 13:57:00
2 1953-12-21 00:00:00 Temperatura 22.5 del 20-12-1953 21:00, Mayor que la Máxima 22.0 21-12-1953 00:00 22.5 -- 22.0 2013-11-18 14:09:00
2 1954-03-15 00:00:00 Temperatura 22.2 del 14-03-1954 20:00, Mayor que la Máxima 22.1 15-03-1954 00:00 22.2 -- 22.1 2012-11-20 19:39:00
2 1954-03-21 00:00:00 Temperatura 24.3 del 20-03-1954 21:00, Mayor que la Máxima 24.2 21-03-1954 00:00 24.3 -- 24.2 2012-11-20 19:40:00
2 1954-04-03 00:00:00 Temperatura 19.3 del 02-04-1954 16:00, Mayor que la Máxima 19.1 03-04-1954 00:00 19.3 -- 19.1 2012-11-29 19:13:00
2 1954-04-17 00:00:00 Temperatura 19.4 del 16-04-1954 17:00, Mayor que la Máxima 19.2 17-04-1954 00:00 19.4 -- 19.2 2012-11-30 12:36:00
2 1954-04-19 00:00:00 Temperatura 16.1 del 18-04-1954 15:00, Mayor que la Máxima 15.0 19-04-1954 00:00 16.1 -- 15.0 2012-11-30 12:38:00
2 1954-05-10 00:00:00 Temperatura 10.2 del 09-05-1954 21:00, Mayor que la Máxima 10.1 10-05-1954 00:00 10.2 -- 10.1 2012-11-30 15:40:00
2 1954-05-24 00:00:00 Temperatura 14.3 del 23-05-1954 19:00, Mayor que la Máxima 14.2 24-05-1954 00:00 14.3 -- 14.2 2012-11-30 15:57:00
2 1954-07-15 00:00:00 Temperatura 10.0 del 14-07-1954 18:00, Mayor que la Máxima 9.9 15-07-1954 00:00 10.0 -- 9.9 2012-12-27 14:54:00
2 1954-07-23 00:00:00 Temperatura 11.0 del 22-07-1954 15:00, Mayor que la Máxima 10.9 23-07-1954 00:00 11.0 -- 10.9 2012-12-27 14:50:00
2 1954-08-16 00:00:00 Temperatura 13.0 del 15-08-1954 16:00, Mayor que la Máxima 12.9 16-08-1954 00:00 13.0 -- 12.9 2012-12-27 17:36:00
2 1954-10-08 00:00:00 Temperatura 12.3 del 07-10-1954 19:00, Mayor que la Máxima 11.8 08-10-1954 00:00 12.3 -- 11.8 2013-01-11 16:05:00
2 1954-10-10 00:00:00 Temperatura 15.8 del 09-10-1954 19:00, Mayor que la Máxima 15.2 10-10-1954 00:00 15.8 -- 15.2 2013-01-11 17:29:00
2 1954-10-13 00:00:00 Temperatura 16.5 del 12-10-1954 19:00, Mayor que la Máxima 16.4 13-10-1954 00:00 16.5 -- 16.4 2013-01-11 16:04:00
2 1954-11-03 00:00:00 Temperatura 21.8 del 02-11-1954 19:00, Mayor que la Máxima 20.8 03-11-1954 00:00 21.8 -- 20.8 2013-01-11 19:03:00
2 1954-11-20 00:00:00 Temperatura 20.0 del 19-11-1954 16:00, Mayor que la Máxima 19.1 20-11-1954 00:00 20.0 -- 19.1 2013-01-11 19:03:00
2 1954-11-21 00:00:00 Temperatura 21.3 del 20-11-1954 19:00, Mayor que la Máxima 21.2 21-11-1954 00:00 21.3 -- 21.2 2013-01-11 19:00:00
2 1952-08-17 12:00:00 Temperatura 6.0 del 17-08-1952 12:00, Menor que la Mínima 7.0 17-08-1952 12:00 6.0 -- 7.0 2014-10-21 17:17:00
2 1952-08-31 12:00:00 Temperatura 4.0 del 31-08-1952 11:00, Menor que la Mínima 6.0 31-08-1952 12:00 4.0 -- 6.0 2014-10-22 12:39:00
2 1952-09-09 12:00:00 Temperatura 4.0 del 09-09-1952 10:00, Menor que la Mínima 5.0 09-09-1952 12:00 4.0 -- 5.0 2014-10-22 14:05:00
2 1952-10-14 12:00:00 Temperatura 8.0 del 14-10-1952 10:00, Menor que la Mínima 8.1 14-10-1952 12:00 8.0 -- 8.1 2014-10-27 13:41:00
2 1952-10-31 12:00:00 Temperatura 7.0 del 31-10-1952 10:00, Menor que la Mínima 7.1 31-10-1952 12:00 7.0 -- 7.1 2014-10-27 19:21:00
2 1953-01-06 12:00:00 Temperatura 14.7 del 06-01-1953 10:00, Menor que la Mínima 15.4 06-01-1953 12:00 14.7 -- 15.4 2013-09-05 14:47:00
2 1953-01-10 12:00:00 Temperatura 8.2 del 10-01-1953 10:00, Menor que la Mínima 9.4 10-01-1953 12:00 8.2 -- 9.4 2013-09-05 18:56:00
2 1953-01-27 12:00:00 Temperatura 11.5 del 27-01-1953 10:00, Menor que la Mínima 12.2 27-01-1953 12:00 11.5 -- 12.2 2013-09-10 18:22:00
2 1953-01-31 12:00:00 Temperatura 6.4 del 31-01-1953 10:00, Menor que la Mínima 6.6 31-01-1953 12:00 6.4 -- 6.6 2013-09-10 19:35:00
2 1953-02-27 12:00:00 Temperatura 8.0 del 27-02-1953 11:00, Menor que la Mínima 8.1 27-02-1953 12:00 8.0 -- 8.1 2013-09-23 15:03:00
2 1953-03-12 12:00:00 Temperatura 8.7 del 12-03-1953 11:00, Menor que la Mínima 9.0 12-03-1953 12:00 8.7 -- 9.0 2013-09-24 17:48:00
2 1953-05-13 12:00:00 Temperatura 12.6 del 13-05-1953 12:00, Menor que la Mínima 12.7 13-05-1953 12:00 12.6 -- 12.7 2013-10-02 18:40:00
2 1953-05-29 12:00:00 Temperatura 9.8 del 29-05-1953 10:00, Menor que la Mínima 10.0 29-05-1953 12:00 9.8 -- 10.0 2013-10-04 17:44:00
2 1953-06-28 12:00:00 Temperatura -4.4 del 28-06-1953 11:00, Menor que la Mínima -4.0 28-06-1953 12:00 -4.4 -- -4.0 2013-10-15 14:09:00
2 1953-07-04 12:00:00 Temperatura -2.4 del 04-07-1953 12:00, Menor que la Mínima -2.1 04-07-1953 12:00 -2.4 -- -2.1 2013-10-21 20:18:00
2 1953-07-27 12:00:00 Temperatura -1.4 del 27-07-1953 11:00, Menor que la Mínima -0.5 27-07-1953 12:00 -1.4 -- -0.5 2013-10-24 13:55:00
2 1953-08-07 12:00:00 Temperatura 8.3 del 07-08-1953 12:00, Menor que la Mínima 8.4 07-08-1953 12:00 8.3 -- 8.4 2013-10-25 18:43:00
2 1953-10-02 12:00:00 Temperatura 1.5 del 02-10-1953 10:00, Menor que la Mínima 1.8 02-10-1953 12:00 1.5 -- 1.8 2013-11-05 18:37:00
2 1953-10-30 12:00:00 Temperatura 7.3 del 30-10-1953 10:00, Menor que la Mínima 7.9 30-10-1953 12:00 7.3 -- 7.9 2013-11-07 18:39:00
2 1953-12-18 12:00:00 Temperatura 13.0 del 18-12-1953 10:00, Menor que la Mínima 13.1 18-12-1953 12:00 13.0 -- 13.1 2013-11-13 19:10:00
2 1954-01-01 12:00:00 Temperatura 11.1 del 01-01-1954 10:00, Menor que la Mínima 11.4 01-01-1954 12:00 11.1 -- 11.4 2012-11-07 15:23:00
2 1954-01-01 12:00:00 Temperatura 11.1 del 01-01-1954 10:00, Menor que la Mínima 11.4 01-01-1954 12:00 11.1 -- 11.4 2012-11-07 15:23:00
2 1954-01-07 12:00:00 Temperatura 5.7 del 07-01-1954 10:00, Menor que la Mínima 5.8 07-01-1954 12:00 5.7 -- 5.8 2012-11-07 19:56:00
2 1954-01-11 12:00:00 Temperatura 10.1 del 11-01-1954 10:00, Menor que la Mínima 10.2 11-01-1954 12:00 10.1 -- 10.2 2012-11-09 14:56:00
2 1954-01-13 12:00:00 Temperatura 7.1 del 13-01-1954 10:00, Menor que la Mínima 8.0 13-01-1954 12:00 7.1 -- 8.0 2012-11-09 15:33:00
2 1954-02-05 12:00:00 Temperatura 15.4 del 05-02-1954 11:00, Menor que la Mínima 15.6 05-02-1954 12:00 15.4 -- 15.6 2012-11-13 12:54:00
2 1954-02-19 12:00:00 Temperatura 8.0 del 19-02-1954 10:00, Menor que la Mínima 9.6 19-02-1954 12:00 8.0 -- 9.6 2012-11-14 12:39:00
2 1954-06-11 12:00:00 Temperatura 10.1 del 11-06-1954 10:00, Menor que la Mínima 10.6 11-06-1954 12:00 10.1 -- 10.6 2012-11-28 18:05:00
2 1954-08-14 12:00:00 Temperatura 11.0 del 14-08-1954 12:00, Menor que la Mínima 11.2 14-08-1954 12:00 11.0 -- 11.2 2012-12-18 18:06:00
2 1954-08-19 12:00:00 Temperatura 3.9 del 19-08-1954 12:00, Menor que la Mínima 4.0 19-08-1954 12:00 3.9 -- 4.0 2012-12-19 12:28:00
2 1954-09-18 12:00:00 Temperatura 8.6 del 18-09-1954 12:00, Menor que la Mínima 8.7 18-09-1954 12:00 8.6 -- 8.7 2012-12-26 14:57:00
Errores del Nivel 119
Informe generado el 05-03-2024 11:19
Requerimiento: RE6001